Flag for U.S.A. Weather past 2 weeks in Paterson, New Jersey, U.S.A.

Now
35 °F

Overcast.


Feels Like: 29 °F
Forecast: 17 / 34 °F
Wind: 7 mph from West

Location: Essex County Airport

Current Time: Feb 1, 2015 at 2:47:00 PM

Latest Report: Feb 1, 2015 at 1:53 PM


Visibility: 10 mi

Pressure: 30.16 "Hg

Humidity: 50%

Dew point: 18 °F

Location of PatersonLocation

Historic Weather in Paterson — Graph

°F

Paterson temperature yesterday

Maximum temperature yesterday: 25 °F (at 2:53 PM)
Minimum temperature yesterday: 11 °F (at 6:53 AM)
Average temperature yesterday: 18 °F

Past Weeks' High & Low Weather Summary

 TemperatureHumidityPressure
High41 °F (Jan 25, 1:53 PM)100% (Jan 18, 5:53 PM)30.37 "Hg (Jan 18, 5:53 PM)
Low10 °F (Jan 29, 7:53 AM)22% (Jan 17, 3:53 PM)29.30 "Hg (Jan 24, 3:00 PM)
Average28 °F61%30.01 "Hg
* Reported Jan 17 12:53 PM — Feb 1 12:53 PM, Paterson, Weather by CustomWeather, © 2014

Note: Actual official high and low records may vary slightly from our data, if they occured in-between our weather recording intervals... More about our weather records

Advertising

Paterson weather history for previous 24 hours

 ConditionsComfort  
Time TempWeatherWind HumidityBarometerVisibility
12:53 PM
Feb 1
34 °FOvercast.8 mph50%30.18 "Hg10 mi
11:53 AM33 °FPartly sunny.6 mph52%30.20 "Hg10 mi
10:53 AM31 °FScattered clouds.7 mph54%30.23 "Hg10 mi
9:53 AM27 °FPartly sunny.3 mph58%30.24 "Hg10 mi
8:53 AM24 °FOvercast.3 mph60%30.25 "Hg10 mi
7:53 AM22 °FOvercast.5 mph62%30.24 "Hg10 mi
6:53 AM19 °FOvercast.No wind62%30.24 "Hg10 mi
5:53 AM18 °FOvercast.3 mph59%30.24 "Hg10 mi
4:53 AM17 °FClear.No wind59%30.22 "Hg10 mi
3:53 AM16 °FOvercast.3 mph62%30.22 "Hg10 mi
2:53 AM15 °FPassing clouds.3 mph61%30.23 "Hg10 mi
1:53 AM15 °FPassing clouds.3 mph61%30.23 "Hg10 mi
12:53 AM14 °FClear.3 mph64%30.23 "Hg10 mi
11:53 PM
Jan 31
14 °FClear.No wind64%30.24 "Hg10 mi
10:53 PM16 °FClear.No wind62%30.24 "Hg10 mi
9:53 PM18 °FClear.3 mph54%30.24 "Hg10 mi
8:53 PM19 °FClear.10 mph49%30.24 "Hg10 mi
7:53 PM20 °FClear.9 mph48%30.22 "Hg10 mi
6:53 PM21 °FClear.12 mph45%30.21 "Hg10 mi
5:53 PM22 °FClear.14 mph40%30.18 "Hg10 mi
4:53 PM23 °FSunny.13 mph36%30.16 "Hg10 mi
3:53 PM25 °FSunny.15 mph35%30.14 "Hg10 mi
2:53 PM25 °FSunny.14 mph32%30.14 "Hg10 mi
Weather by CustomWeather, © 2014

See weather overviewHow to use our weather pages